| time (UTC) | temp F | wind direction | speed MPH | gust MPH | rain 1hr in | rain 24hr in | rain mn in | humidity % | barometer mb |
| 20260901014706 | 81 | 252 | 5.0 | 8.0 | 0.00 | 0.11 | 0.11 | 88 | 1012.8 |
| 20260901014203 | 81 | 242 | 5.0 | 9.0 | 0.00 | 0.11 | 0.11 | 87 | 1012.9 |
| 20260901013653 | 81 | 241 | 5.0 | 7.0 | 0.00 | 0.11 | 0.11 | 87 | 1012.4 |
| 20260901013148 | 81 | 237 | 5.0 | 10.0 | 0.00 | 0.11 | 0.11 | 86 | 1012.8 |
| 20260901012643 | 81 | 232 | 4.0 | 8.0 | 0.00 | 0.11 | 0.11 | 86 | 1012.8 |
| 20260901012138 | 82 | 247 | 8.0 | 13.0 | 0.00 | 0.11 | 0.11 | 85 | 1012.6 |
| 20260901011634 | 81 | 287 | 5.0 | 9.0 | 0.00 | 0.11 | 0.11 | 86 | 1012.4 |
| 20260901011133 | 82 | 245 | 8.0 | 9.0 | 0.00 | 0.11 | 0.11 | 86 | 1012.2 |
| 20260901010627 | 81 | 230 | 6.0 | 6.0 | 0.00 | 0.11 | 0.11 | 86 | 1012.1 |
| 20260901010121 | 82 | 228 | 4.0 | 6.0 | 0.00 | 0.11 | 0.11 | 85 | 1012.2 |
| 20260901005620 | 82 | 230 | 4.0 | 7.0 | 0.00 | 0.11 | 0.11 | 85 | 1011.8 |
| 20260901005116 | 82 | 200 | 5.0 | 7.0 | 0.00 | 0.11 | 0.11 | 85 | 1011.9 |
| 20260901004615 | 82 | 225 | 4.0 | 9.0 | 0.00 | 0.11 | 0.11 | 85 | 1011.6 |
| 20260901004110 | 82 | 226 | 5.0 | 6.0 | 0.00 | 0.11 | 0.11 | 85 | 1011.7 |
| 20260901003605 | 82 | 236 | 4.0 | 6.0 | 0.00 | 0.11 | 0.11 | 85 | 1011.5 |
| 20260901003103 | 82 | 241 | 4.0 | 6.0 | 0.00 | 0.11 | 0.11 | 84 | 1011.4 |
| 20260901002558 | 82 | 225 | 8.0 | 8.0 | 0.00 | 0.11 | 0.11 | 84 | 1011.4 |
| 20260901002053 | 83 | 236 | 4.0 | 7.0 | 0.00 | 0.11 | 0.11 | 84 | 1011.3 |
| 20260901001548 | 83 | 231 | 5.0 | 6.0 | 0.00 | 0.11 | 0.11 | 83 | 1011.3 |
| 20260901001043 | 83 | 216 | 4.0 | 7.0 | 0.00 | 0.11 | 0.11 | 83 | 1011.3 |
| 20260901000537 | 83 | 233 | 3.0 | 9.0 | 0.00 | 0.11 | 0.11 | 82 | 1011.3 |
| 20260901000033 | 83 | 242 | 3.0 | 7.0 | 0.00 | 0.11 | 0.11 | 82 | 1011.3 |
| 20260831235526 | 83 | 227 | 5.0 | 9.0 | 0.00 | 0.11 | 0.11 | 81 | 1011.4 |
| 20260831235023 | 84 | 242 | 4.0 | 8.0 | 0.00 | 0.11 | 0.11 | 80 | 1011.1 |
| 20260831234516 | 84 | 229 | 5.0 | 7.0 | 0.00 | 0.11 | 0.11 | 81 | 1011.1 |
| 20260831234013 | 84 | 231 | 5.0 | 9.0 | 0.00 | 0.11 | 0.11 | 80 | 1011.3 |
| 20260831233507 | 84 | 225 | 3.0 | 10.0 | 0.00 | 0.11 | 0.11 | 80 | 1010.9 |
| 20260831233003 | 84 | 222 | 3.0 | 8.0 | 0.00 | 0.11 | 0.11 | 81 | 1011.4 |
| 20260831232458 | 84 | 240 | 4.0 | 8.0 | 0.00 | 0.11 | 0.11 | 81 | 1011.2 |
| 20260831231954 | 84 | 229 | 4.0 | 6.0 | 0.00 | 0.11 | 0.11 | 81 | 1011.1 |
| 20260831231451 | 84 | 203 | 4.0 | 7.0 | 0.00 | 0.11 | 0.11 | 80 | 1011.0 |
| 20260831230946 | 84 | 213 | 4.0 | 7.0 | 0.00 | 0.11 | 0.11 | 81 | 1011.1 |
| 20260831230440 | 85 | 232 | 6.0 | 7.0 | 0.00 | 0.11 | 0.11 | 81 | 1011.2 |
| 20260831225934 | 84 | 209 | 5.0 | 5.0 | 0.00 | 0.11 | 0.11 | 81 | 1011.3 |
| 20260831225431 | 85 | 232 | 3.0 | 4.0 | 0.00 | 0.11 | 0.11 | 80 | 1010.8 |
| 20260831224926 | 84 | 221 | 2.0 | 3.0 | 0.00 | 0.11 | 0.11 | 81 | 1010.8 |
| 20260831224425 | 85 | 201 | 2.0 | 2.0 | 0.00 | 0.11 | 0.11 | 80 | 1010.6 |
| 20260831223920 | 85 | 168 | 1.0 | 2.0 | 0.00 | 0.11 | 0.11 | 79 | 1010.4 |
| 20260831223416 | 85 | 171 | 3.0 | 3.0 | 0.00 | 0.11 | 0.11 | 78 | 1010.4 |
| 20260831222913 | 85 | 221 | 2.0 | 4.0 | 0.00 | 0.11 | 0.11 | 78 | 1010.5 |
| 20260831222408 | 85 | 225 | 7.0 | 7.0 | 0.00 | 0.11 | 0.11 | 77 | 1010.8 |
| 20260831221903 | 85 | 231 | 3.0 | 6.0 | 0.00 | 0.11 | 0.11 | 78 | 1010.9 |
| 20260831221358 | 86 | 220 | 6.0 | 8.0 | 0.00 | 0.11 | 0.11 | 77 | 1011.0 |
| 20260831220854 | 86 | 218 | 5.0 | 9.0 | 0.00 | 0.11 | 0.11 | 76 | 1011.0 |
| 20260831220349 | 86 | 201 | 3.0 | 7.0 | 0.00 | 0.11 | 0.11 | 76 | 1011.0 |
| 20260831215844 | 86 | 206 | 8.0 | 8.0 | 0.00 | 0.11 | 0.11 | 75 | 1010.8 |
| 20260831215339 | 86 | 209 | 3.0 | 5.0 | 0.00 | 0.11 | 0.11 | 76 | 1011.0 |
| 20260831214836 | 86 | 229 | 3.0 | 4.0 | 0.00 | 0.11 | 0.11 | 76 | 1011.0 |
| 20260831214333 | 86 | 220 | 2.0 | 5.0 | 0.00 | 0.11 | 0.11 | 75 | 1010.9 |
| 20260831213828 | 86 | 242 | 5.0 | 7.0 | 0.00 | 0.11 | 0.11 | 75 | 1011.0 |
| 20260831213325 | 86 | 245 | 4.0 | 7.0 | 0.00 | 0.11 | 0.11 | 75 | 1010.9 |
| 20260831212820 | 86 | 227 | 8.0 | 8.0 | 0.00 | 0.11 | 0.11 | 74 | 1011.0 |
| 20260831212317 | 87 | 235 | 3.0 | 9.0 | 0.00 | 0.11 | 0.11 | 74 | 1011.0 |
| 20260831211815 | 87 | 225 | 4.0 | 7.0 | 0.00 | 0.11 | 0.11 | 75 | 1011.0 |
| 20260831211310 | 86 | 217 | 7.0 | 8.0 | 0.00 | 0.11 | 0.11 | 73 | 1010.8 |
| 20260831210804 | 86 | 222 | 7.0 | 7.0 | 0.00 | 0.11 | 0.11 | 74 | 1010.9 |
| 20260831210301 | 87 | 228 | 10.0 | 10.0 | 0.00 | 0.11 | 0.11 | 73 | 1011.0 |
| 20260831205800 | 86 | 229 | 8.0 | 9.0 | 0.00 | 0.11 | 0.11 | 73 | 1010.8 |
| 20260831205256 | 87 | 237 | 5.0 | 9.0 | 0.00 | 0.11 | 0.11 | 74 | 1010.8 |
| 20260831204755 | 86 | 238 | 8.0 | 11.0 | 0.00 | 0.11 | 0.11 | 72 | 1010.8 |
| 20260831204255 | 87 | 242 | 5.0 | 11.0 | 0.00 | 0.11 | 0.11 | 73 | 1010.8 |
| 20260831203754 | 87 | 247 | 8.0 | 12.0 | 0.00 | 0.11 | 0.11 | 71 | 1010.9 |
| 20260831203249 | 87 | 266 | 5.0 | 9.0 | 0.00 | 0.11 | 0.11 | 72 | 1011.0 |
| 20260831202748 | 87 | 248 | 5.0 | 10.0 | 0.00 | 0.11 | 0.11 | 72 | 1010.7 |
| 20260831202243 | 87 | 250 | 8.0 | 11.0 | 0.00 | 0.11 | 0.11 | 71 | 1010.7 |
| 20260831201742 | 87 | 235 | 7.0 | 10.0 | 0.00 | 0.11 | 0.11 | 72 | 1010.7 |
| 20260831201242 | 85 | 238 | 6.0 | 14.0 | 0.00 | 0.11 | 0.11 | 73 | 1010.6 |
| 20260831200737 | 87 | 263 | 5.0 | 10.0 | 0.00 | 0.11 | 0.11 | 71 | 1010.9 |
| 20260831200232 | 86 | 240 | 10.0 | 13.0 | 0.00 | 0.11 | 0.11 | 71 | 1010.7 |
| 20260831195728 | 86 | 225 | 7.0 | 13.0 | 0.00 | 0.11 | 0.11 | 72 | 1011.2 |
| 20260831195223 | 86 | 268 | 6.0 | 11.0 | 0.00 | 0.11 | 0.11 | 72 | 1011.2 |
| 20260831194718 | 86 | 255 | 6.0 | 14.0 | 0.00 | 0.11 | 0.11 | 71 | 1011.3 |
| 20260831194214 | 87 | 219 | 8.0 | 12.0 | 0.00 | 0.11 | 0.11 | 71 | 1011.1 |
| 20260831193707 | 86 | 249 | 7.0 | 13.0 | 0.00 | 0.11 | 0.11 | 72 | 1011.1 |
| 20260831193203 | 86 | 237 | 13.0 | 13.0 | 0.00 | 0.11 | 0.11 | 70 | 1011.1 |
| 20260831192658 | 86 | 237 | 7.0 | 9.0 | 0.00 | 0.11 | 0.11 | 71 | 1010.9 |
| 20260831192153 | 86 | 223 | 7.0 | 15.0 | 0.00 | 0.11 | 0.11 | 72 | 1011.0 |
| 20260831191649 | 86 | 242 | 8.0 | 10.0 | 0.00 | 0.11 | 0.11 | 72 | 1011.1 |
| 20260831191145 | 85 | 261 | 10.0 | 11.0 | 0.00 | 0.11 | 0.11 | 72 | 1011.3 |
| 20260831190639 | 86 | 232 | 6.0 | 13.0 | 0.00 | 0.11 | 0.11 | 72 | 1011.3 |
| 20260831190138 | 86 | 225 | 7.0 | 10.0 | 0.00 | 0.11 | 0.11 | 71 | 1011.1 |
| 20260831185634 | 86 | 241 | 6.0 | 9.0 | 0.00 | 0.11 | 0.11 | 71 | 1011.2 |
| 20260831185129 | 85 | 222 | 8.0 | 9.0 | 0.00 | 0.11 | 0.11 | 72 | 1011.2 |
| 20260831184623 | 85 | 220 | 7.0 | 14.0 | 0.00 | 0.11 | 0.11 | 72 | 1011.3 |
| 20260831184119 | 85 | 229 | 10.0 | 14.0 | 0.00 | 0.11 | 0.11 | 72 | 1011.2 |
| 20260831183613 | 84 | 258 | 6.0 | 12.0 | 0.00 | 0.11 | 0.11 | 73 | 1011.5 |
| 20260831183112 | 85 | 245 | 7.0 | 14.0 | 0.00 | 0.11 | 0.11 | 72 | 1011.2 |
| 20260831182612 | 84 | 244 | 8.0 | 16.0 | 0.00 | 0.11 | 0.11 | 72 | 1011.3 |
| 20260831182108 | 85 | 232 | 10.0 | 12.0 | 0.00 | 0.11 | 0.11 | 71 | 1011.1 |
| 20260831181608 | 84 | 240 | 10.0 | 12.0 | 0.00 | 0.11 | 0.11 | 72 | 1011.1 |
| 20260831181102 | 84 | 229 | 14.0 | 14.0 | 0.00 | 0.11 | 0.11 | 73 | 1011.3 |
| 20260831180557 | 84 | 235 | 13.0 | 14.0 | 0.00 | 0.11 | 0.11 | 72 | 1011.2 |
| 20260831180053 | 83 | 246 | 11.0 | 14.0 | 0.00 | 0.11 | 0.11 | 72 | 1011.2 |
| 20260831175547 | 83 | 235 | 9.0 | 14.0 | 0.00 | 0.11 | 0.11 | 73 | 1011.2 |
| 20260831175044 | 83 | 248 | 12.0 | 17.0 | 0.00 | 0.11 | 0.11 | 72 | 1011.4 |
| 20260831174538 | 83 | 233 | 10.0 | 15.0 | 0.00 | 0.11 | 0.11 | 74 | 1011.5 |
| 20260831174032 | 83 | 246 | 6.0 | 14.0 | 0.00 | 0.11 | 0.11 | 74 | 1011.3 |
| 20260831173531 | 83 | 233 | 13.0 | 15.0 | 0.00 | 0.11 | 0.11 | 72 | 1011.5 |
| 20260831173027 | 83 | 234 | 13.0 | 16.0 | 0.00 | 0.11 | 0.11 | 72 | 1011.4 |
| 20260831172522 | 83 | 237 | 5.0 | 16.0 | 0.00 | 0.11 | 0.11 | 74 | 1011.6 |
| 20260831172017 | 83 | 324 | 4.0 | 15.0 | 0.00 | 0.11 | 0.11 | 73 | 1011.4 |
| 20260831171513 | 82 | 244 | 3.0 | 11.0 | 0.00 | 0.11 | 0.11 | 74 | 1011.3 |
| 20260831171010 | 82 | 236 | 9.0 | 14.0 | 0.00 | 0.11 | 0.11 | 74 | 1011.4 |
| 20260831170505 | 83 | 273 | 6.0 | 10.0 | 0.00 | 0.11 | 0.11 | 74 | 1011.5 |
| 20260831170002 | 82 | 220 | 3.0 | 15.0 | 0.00 | 0.11 | 0.11 | 74 | 1011.4 |
| 20260831165457 | 82 | 265 | 9.0 | 13.0 | 0.00 | 0.11 | 0.11 | 73 | 1011.7 |
| 20260831164954 | 81 | 246 | 11.0 | 14.0 | 0.00 | 0.11 | 0.11 | 73 | 1011.5 |
| 20260831164450 | 81 | 241 | 10.0 | 14.0 | 0.00 | 0.11 | 0.11 | 74 | 1011.4 |
| 20260831163945 | 82 | 213 | 6.0 | 9.0 | 0.00 | 0.11 | 0.11 | 74 | 1011.3 |
| 20260831163440 | 81 | 242 | 5.0 | 11.0 | 0.00 | 0.11 | 0.11 | 75 | 1011.7 |
| 20260831162938 | 81 | 244 | 9.0 | 12.0 | 0.00 | 0.11 | 0.11 | 74 | 1011.6 |
| 20260831162434 | 81 | 237 | 7.0 | 11.0 | 0.00 | 0.11 | 0.11 | 75 | 1011.7 |
| 20260831161932 | 81 | 258 | 6.0 | 11.0 | 0.00 | 0.11 | 0.11 | 74 | 1011.5 |
| 20260831161429 | 81 | 240 | 9.0 | 15.0 | 0.00 | 0.11 | 0.11 | 75 | 1011.6 |
| 20260831160925 | 80 | 234 | 13.0 | 14.0 | 0.00 | 0.11 | 0.11 | 75 | 1011.7 |
| 20260831160419 | 81 | 233 | 4.0 | 10.0 | 0.00 | 0.11 | 0.11 | 76 | 1011.5 |
| 20260831155919 | 81 | 222 | 6.0 | 11.0 | 0.00 | 0.11 | 0.11 | 76 | 1011.7 |
| 20260831155419 | 80 | 239 | 7.0 | 13.0 | 0.00 | 0.11 | 0.11 | 74 | 1011.7 |
| 20260831154915 | 80 | 219 | 5.0 | 11.0 | 0.00 | 0.11 | 0.11 | 76 | 1011.6 |
| 20260831154411 | 80 | 245 | 7.0 | 14.0 | 0.00 | 0.11 | 0.11 | 77 | 1011.6 |
| 20260831153909 | 79 | 225 | 8.0 | 12.0 | 0.00 | 0.11 | 0.11 | 76 | 1011.7 |
| 20260831153405 | 79 | 215 | 9.0 | 15.0 | 0.00 | 0.11 | 0.11 | 76 | 1011.8 |
| 20260831152901 | 80 | 243 | 12.0 | 14.0 | 0.00 | 0.11 | 0.11 | 77 | 1011.7 |
| 20260831152357 | 79 | 246 | 7.0 | 15.0 | 0.00 | 0.11 | 0.11 | 76 | 1011.7 |
| 20260831151852 | 80 | 227 | 7.0 | 12.0 | 0.00 | 0.11 | 0.11 | 78 | 1011.6 |
| 20260831151351 | 79 | 224 | 8.0 | 14.0 | 0.00 | 0.11 | 0.11 | 77 | 1011.6 |
| 20260831150846 | 79 | 225 | 8.0 | 13.0 | 0.00 | 0.11 | 0.11 | 77 | 1011.6 |
| 20260831150342 | 79 | 217 | 7.0 | 12.0 | 0.00 | 0.11 | 0.11 | 77 | 1011.6 |
| 20260831145840 | 79 | 225 | 6.0 | 12.0 | 0.00 | 0.11 | 0.11 | 79 | 1011.4 |
| 20260831145337 | 79 | 209 | 8.0 | 13.0 | 0.00 | 0.11 | 0.11 | 79 | 1011.8 |
| 20260831144832 | 78 | 210 | 5.0 | 10.0 | 0.00 | 0.11 | 0.11 | 79 | 1011.5 |
| 20260831144328 | 78 | 222 | 6.0 | 12.0 | 0.00 | 0.11 | 0.11 | 78 | 1011.6 |
| 20260831143823 | 78 | 199 | 6.0 | 11.0 | 0.00 | 0.11 | 0.11 | 79 | 1011.8 |
| 20260831143318 | 78 | 236 | 7.0 | 10.0 | 0.00 | 0.11 | 0.11 | 80 | 1011.6 |
| 20260831142813 | 78 | 222 | 5.0 | 10.0 | 0.00 | 0.11 | 0.11 | 80 | 1011.6 |
| 20260831142309 | 78 | 219 | 4.0 | 10.0 | 0.00 | 0.11 | 0.11 | 80 | 1011.5 |
| 20260831141809 | 78 | 223 | 8.0 | 12.0 | 0.00 | 0.11 | 0.11 | 78 | 1011.6 |
| 20260831141303 | 78 | 225 | 11.0 | 13.0 | 0.00 | 0.11 | 0.11 | 79 | 1011.7 |
| 20260831140758 | 78 | 243 | 5.0 | 11.0 | 0.00 | 0.11 | 0.11 | 82 | 1011.8 |
| 20260831140252 | 77 | 195 | 6.0 | 9.0 | 0.00 | 0.11 | 0.11 | 83 | 1011.6 |
| 20260831135750 | 76 | 188 | 4.0 | 7.0 | 0.00 | 0.11 | 0.11 | 88 | 1011.6 |
| 20260831135246 | 75 | 210 | 4.0 | 7.0 | 0.00 | 0.11 | 0.11 | 89 | 1011.8 |
| 20260831134741 | 75 | 197 | 4.0 | 7.0 | 0.00 | 0.11 | 0.11 | 91 | 1011.8 |
| 20260831134238 | 74 | 208 | 6.0 | 9.0 | 0.00 | 0.11 | 0.11 | 91 | 1011.9 |
| 20260831133736 | 73 | 187 | 2.0 | 8.0 | 0.00 | 0.11 | 0.11 | 91 | 1011.7 |
| 20260831133231 | 73 | 191 | 5.0 | 8.0 | 0.00 | 0.11 | 0.11 | 92 | 1011.7 |
| 20260831132726 | 73 | 180 | 4.0 | 7.0 | 0.00 | 0.11 | 0.11 | 93 | 1011.5 |
| 20260831132221 | 72 | 158 | 6.0 | 9.0 | 0.00 | 0.11 | 0.11 | 94 | 1011.4 |
| 20260831131720 | 71 | 158 | 7.0 | 9.0 | 0.00 | 0.11 | 0.11 | 94 | 1011.4 |
| 20260831131218 | 71 | 143 | 6.0 | 6.0 | 0.00 | 0.11 | 0.11 | 94 | 1011.6 |
| 20260831130712 | 71 | 160 | 5.0 | 7.0 | 0.00 | 0.11 | 0.11 | 94 | 1012.1 |
| 20260831130208 | 71 | 164 | 7.0 | 9.0 | 0.00 | 0.11 | 0.11 | 94 | 1011.8 |
| 20260831125706 | 71 | 162 | 7.0 | 9.0 | 0.00 | 0.11 | 0.11 | 94 | 1011.9 |
| 20260831125202 | 71 | 159 | 6.0 | 8.0 | 0.00 | 0.11 | 0.11 | 94 | 1011.9 |
| 20260831124657 | 71 | 152 | 8.0 | 11.0 | 0.00 | 0.11 | 0.11 | 94 | 1011.8 |
| 20260831124154 | 71 | 184 | 4.0 | 9.0 | 0.00 | 0.11 | 0.11 | 94 | 1012.0 |
| 20260831123653 | 71 | 149 | 6.0 | 9.0 | 0.00 | 0.11 | 0.11 | 95 | 1011.9 |
| 20260831123151 | 71 | 149 | 6.0 | 9.0 | 0.00 | 0.11 | 0.11 | 95 | 1011.8 |
| 20260831122646 | 71 | 153 | 6.0 | 8.0 | 0.00 | 0.11 | 0.11 | 95 | 1011.9 |
| 20260831122142 | 71 | 164 | 8.0 | 10.0 | 0.00 | 0.11 | 0.11 | 95 | 1011.8 |
| 20260831121641 | 71 | 162 | 5.0 | 7.0 | 0.00 | 0.11 | 0.11 | 95 | 1011.8 |
| 20260831121137 | 71 | 158 | 5.0 | 6.0 | 0.00 | 0.11 | 0.11 | 95 | 1011.7 |
| 20260831120632 | 71 | 153 | 5.0 | 8.0 | 0.00 | 0.11 | 0.11 | 95 | 1011.7 |
| 20260831120122 | 71 | 142 | 6.0 | 9.0 | 0.00 | 0.11 | 0.11 | 95 | 1011.5 |
| 20260831115618 | 71 | 161 | 7.0 | 9.0 | 0.00 | 0.11 | 0.11 | 94 | 1011.7 |
| 20260831115113 | 71 | 166 | 5.0 | 9.0 | 0.00 | 0.11 | 0.11 | 94 | 1011.8 |
| 20260831114612 | 71 | 154 | 5.0 | 11.0 | 0.00 | 0.11 | 0.11 | 94 | 1011.8 |
| 20260831114107 | 71 | 144 | 5.0 | 8.0 | 0.00 | 0.11 | 0.11 | 94 | 1011.9 |
| 20260831113606 | 71 | 146 | 8.0 | 8.0 | 0.00 | 0.11 | 0.11 | 95 | 1011.9 |
| 20260831113102 | 71 | 140 | 6.0 | 8.0 | 0.00 | 0.11 | 0.11 | 95 | 1011.6 |
| 20260831112601 | 71 | 133 | 6.0 | 9.0 | 0.00 | 0.11 | 0.11 | 94 | 1011.6 |
| 20260831112056 | 71 | 137 | 7.0 | 7.0 | 0.00 | 0.11 | 0.11 | 94 | 1011.5 |
| 20260831111552 | 71 | 157 | 3.0 | 8.0 | 0.00 | 0.11 | 0.11 | 93 | 1011.9 |
| 20260831111048 | 71 | 132 | 6.0 | 8.0 | 0.00 | 0.11 | 0.11 | 93 | 1011.8 |
| 20260831110543 | 71 | 139 | 7.0 | 11.0 | 0.00 | 0.11 | 0.11 | 93 | 1011.7 |
| 20260831110038 | 72 | 156 | 10.0 | 11.0 | 0.00 | 0.11 | 0.11 | 93 | 1012.0 |
| 20260831105537 | 72 | 165 | 8.0 | 10.0 | 0.00 | 0.11 | 0.11 | 92 | 1011.9 |
| 20260831105032 | 72 | 158 | 7.0 | 9.0 | 0.00 | 0.11 | 0.11 | 91 | 1011.9 |
| 20260831104528 | 72 | 146 | 6.0 | 12.0 | 0.00 | 0.11 | 0.11 | 90 | 1011.9 |
| 20260831104024 | 72 | 153 | 8.0 | 10.0 | 0.00 | 0.11 | 0.11 | 90 | 1011.9 |
| 20260831103519 | 73 | 155 | 7.0 | 11.0 | 0.00 | 0.11 | 0.11 | 90 | 1011.8 |
| 20260831103015 | 72 | 151 | 9.0 | 12.0 | 0.00 | 0.11 | 0.11 | 91 | 1011.9 |
| 20260831102509 | 72 | 156 | 11.0 | 13.0 | 0.00 | 0.11 | 0.11 | 92 | 1012.0 |
| 20260831102004 | 71 | 142 | 10.0 | 12.0 | 0.00 | 0.11 | 0.11 | 93 | 1011.8 |
| 20260831101459 | 71 | 161 | 7.0 | 12.0 | 0.07 | 0.11 | 0.11 | 94 | 1012.0 |
| 20260831100955 | 71 | 143 | 10.0 | 11.0 | 0.28 | 0.11 | 0.11 | 95 | 1011.9 |
| 20260831100451 | 71 | 167 | 8.0 | 12.0 | 0.21 | 0.10 | 0.10 | 95 | 1012.0 |
| 20260831095946 | 71 | 158 | 5.0 | 13.0 | 0.00 | 0.07 | 0.07 | 95 | 1012.1 |
| 20260831095445 | 71 | 154 | 8.0 | 10.0 | 0.00 | 0.07 | 0.07 | 96 | 1012.0 |
| 20260831094940 | 70 | 148 | 6.0 | 6.0 | 0.05 | 0.07 | 0.07 | 96 | 1012.2 |
| 20260831094436 | 69 | 140 | 4.0 | 6.0 | 0.26 | 0.07 | 0.07 | 96 | 1012.4 |
| 20260831093932 | 70 | 159 | 6.0 | 7.0 | 0.21 | 0.06 | 0.06 | 95 | 1012.9 |
| 20260831093426 | 70 | 157 | 0.0 | 2.0 | 0.07 | 0.02 | 0.02 | 95 | 1012.9 |
| 20260831092924 | 70 | 192 | 1.0 | 4.0 | 0.14 | 0.02 | 0.02 | 95 | 1012.7 |
| 20260831092419 | 70 | 142 | 4.0 | 5.0 | 0.07 | 0.01 | 0.01 | 95 | 1012.6 |
| 20260831091914 | 70 | 180 | 4.0 | 6.0 | 0.00 | 0.00 | 0.00 | 95 | 1012.8 |
| 20260831091409 | 70 | 171 | 4.0 | 6.0 | 0.00 | 0.00 | 0.00 | 95 | 1012.8 |
| 20260831090904 | 70 | 180 | 5.0 | 6.0 | 0.00 | 0.00 | 0.00 | 95 | 1012.7 |
| 20260831090400 | 70 | 164 | 6.0 | 8.0 | 0.00 | 0.00 | 0.00 | 95 | 1012.9 |
| 20260831085856 | 70 | 157 | 6.0 | 9.0 | 0.00 | 0.00 | 0.00 | 95 | 1012.7 |
| 20260831085350 | 70 | 203 | 9.0 | 9.0 | 0.00 | 0.00 | 0.00 | 95 | 1012.7 |
| 20260831084844 | 70 | 158 | 8.0 | 11.0 | 0.00 | 0.00 | 0.00 | 95 | 1012.6 |
| 20260831084341 | 70 | 179 | 5.0 | 9.0 | 0.00 | 0.00 | 0.00 | 95 | 1012.8 |
| 20260831083837 | 70 | 158 | 6.0 | 9.0 | 0.00 | 0.00 | 0.00 | 95 | 1013.0 |
| 20260831083332 | 70 | 153 | 7.0 | 9.0 | 0.00 | 0.00 | 0.00 | 95 | 1012.9 |
| 20260831082831 | 70 | 161 | 7.0 | 9.0 | 0.00 | 0.00 | 0.00 | 96 | 1012.9 |
| 20260831082326 | 70 | 159 | 8.0 | 9.0 | 0.00 | 0.00 | 0.00 | 96 | 1013.0 |
| 20260831081822 | 70 | 176 | 6.0 | 11.0 | 0.00 | 0.00 | 0.00 | 96 | 1012.8 |
| 20260831081317 | 69 | 157 | 7.0 | 10.0 | 0.00 | 0.00 | 0.00 | 96 | 1012.8 |
| 20260831080813 | 69 | 160 | 8.0 | 8.0 | 0.00 | 0.00 | 0.00 | 96 | 1012.9 |
| 20260831080308 | 69 | 157 | 6.0 | 8.0 | 0.00 | 0.00 | 0.00 | 96 | 1012.9 |
| 20260831075803 | 69 | 180 | 5.0 | 9.0 | 0.00 | 0.00 | 0.00 | 96 | 1012.9 |
| 20260831075258 | 69 | 157 | 7.0 | 8.0 | 0.00 | 0.00 | 0.00 | 96 | 1012.8 |
| 20260831074758 | 69 | 145 | 4.0 | 9.0 | 0.00 | 0.00 | 0.00 | 96 | 1012.8 |
| 20260831074252 | 69 | 158 | 7.0 | 7.0 | 0.00 | 0.00 | 0.00 | 96 | 1013.1 |
| 20260831073748 | 69 | 180 | 4.0 | 5.0 | 0.00 | 0.00 | 0.00 | 96 | 1013.1 |
| 20260831073246 | 69 | 146 | 5.0 | 6.0 | 0.00 | 0.00 | 0.00 | 96 | 1013.3 |
| 20260831072742 | 69 | 135 | 5.0 | 6.0 | 0.00 | 0.00 | 0.00 | 96 | 1013.1 |
| 20260831072238 | 69 | 157 | 3.0 | 5.0 | 0.00 | 0.00 | 0.00 | 96 | 1013.2 |
| 20260831071738 | 69 | 159 | 4.0 | 6.0 | 0.00 | 0.00 | 0.00 | 96 | 1013.2 |
| 20260831071232 | 69 | 141 | 5.0 | 7.0 | 0.00 | 0.00 | 0.00 | 96 | 1013.0 |
| 20260831070727 | 69 | 145 | 7.0 | 8.0 | 0.00 | 0.00 | 0.00 | 96 | 1013.2 |
| 20260831070221 | 69 | 144 | 6.0 | 8.0 | 0.00 | 0.00 | 0.00 | 96 | 1013.2 |
| 20260831065720 | 69 | 131 | 3.0 | 7.0 | 0.00 | 0.00 | 0.00 | 96 | 1013.3 |
| 20260831065219 | 69 | 131 | 5.0 | 7.0 | 0.00 | 0.00 | 0.00 | 96 | 1013.6 |
| 20260831064714 | 70 | 131 | 3.0 | 8.0 | 0.00 | 0.00 | 0.00 | 96 | 1013.3 |
| 20260831064209 | 70 | 137 | 4.0 | 6.0 | 0.00 | 0.00 | 0.00 | 96 | 1013.6 |
| 20260831063705 | 70 | 139 | 2.0 | 5.0 | 0.00 | 0.00 | 0.00 | 96 | 1014.1 |
| 20260831063200 | 71 | 150 | 2.0 | 4.0 | 0.00 | 0.00 | 0.00 | 96 | 1014.3 |
| 20260831062654 | 71 | 144 | 2.0 | 3.0 | 0.00 | 0.00 | 0.00 | 96 | 1014.4 |
| 20260831062148 | 71 | 198 | 1.0 | 3.0 | 0.00 | 0.00 | 0.00 | 96 | 1014.6 |
| 20260831061646 | 71 | 225 | 3.0 | 3.0 | 0.00 | 0.00 | 0.00 | 96 | 1014.7 |
| 20260831061142 | 71 | 234 | 1.0 | 4.0 | 0.00 | 0.00 | 0.00 | 96 | 1014.8 |
| 20260831060638 | 71 | 220 | 2.0 | 5.0 | 0.00 | 0.00 | 0.00 | 96 | 1014.8 |
| 20260831060132 | 71 | 259 | 3.0 | 4.0 | 0.00 | 0.00 | 0.00 | 96 | 1014.7 |
| 20260831055631 | 71 | 243 | 4.0 | 6.0 | 0.00 | 0.00 | 0.00 | 96 | 1014.8 |
| 20260831055127 | 71 | 244 | 6.0 | 6.0 | 0.00 | 0.00 | 0.00 | 96 | 1014.8 |
| 20260831054626 | 71 | 240 | 3.0 | 5.0 | 0.00 | 0.00 | 0.00 | 95 | 1014.7 |
| 20260831054126 | 71 | 275 | 2.0 | 4.0 | 0.00 | 0.00 | 0.00 | 95 | 1014.8 |
| 20260831053621 | 71 | 244 | 4.0 | 5.0 | 0.00 | 0.00 | 0.00 | 95 | 1014.6 |
| 20260831053120 | 71 | 252 | 4.0 | 6.0 | 0.00 | 0.00 | 0.00 | 95 | 1014.6 |
| 20260831052619 | 71 | 249 | 5.0 | 7.0 | 0.00 | 0.00 | 0.00 | 95 | 1014.5 |
| 20260831052118 | 71 | 274 | 3.0 | 7.0 | 0.00 | 0.00 | 0.00 | 95 | 1014.6 |
| 20260831051616 | 71 | 291 | 1.0 | 5.0 | 0.00 | 0.00 | 0.00 | 95 | 1014.5 |
| 20260831051115 | 71 | 246 | 3.0 | 6.0 | 0.00 | 0.00 | 0.00 | 95 | 1014.6 |
| 20260831050610 | 71 | 243 | 3.0 | 6.0 | 0.00 | 0.00 | 0.00 | 95 | 1014.6 |
| 20260831050109 | 71 | 245 | 5.0 | 5.0 | 0.00 | 0.00 | 0.00 | 95 | 1014.8 |
| 20260831045608 | 71 | 237 | 4.0 | 5.0 | 0.00 | 0.00 | 0.00 | 95 | 1014.6 |
| 20260831045103 | 71 | 221 | 2.0 | 4.0 | 0.00 | 0.00 | 0.00 | 95 | 1014.5 |
| 20260831044559 | 71 | 230 | 4.0 | 5.0 | 0.00 | 0.00 | 0.00 | 95 | 1014.5 |
| 20260831044054 | 71 | 263 | 3.0 | 5.0 | 0.00 | 0.00 | 0.00 | 95 | 1014.6 |
| 20260831043549 | 71 | 230 | 3.0 | 4.0 | 0.00 | 0.00 | 0.00 | 95 | 1014.5 |
| 20260831043045 | 71 | 257 | 3.0 | 4.0 | 0.00 | 0.00 | 0.00 | 94 | 1014.3 |
| 20260831042544 | 72 | 225 | 2.0 | 5.0 | 0.00 | 0.00 | 0.00 | 94 | 1014.4 |
| 20260831042039 | 72 | 197 | 2.0 | 4.0 | 0.00 | 0.00 | 0.00 | 94 | 1014.1 |
| 20260831041534 | 72 | 198 | 3.0 | 3.0 | 0.00 | 0.00 | 0.00 | 94 | 1014.0 |
| 20260831041027 | 72 | 199 | 4.0 | 4.0 | 0.00 | 0.00 | 0.00 | 94 | 1013.9 |
| 20260831040522 | 72 | 160 | 3.0 | 5.0 | 0.00 | 0.00 | 0.00 | 93 | 1013.8 |
| 20260831040022 | 72 | 173 | 2.0 | 5.0 | 0.00 | 0.00 | 0.00 | 93 | 1013.9 |
| 20260831035519 | 72 | 212 | 4.0 | 5.0 | 0.00 | 0.00 | 0.00 | 93 | 1013.9 |
| 20260831035014 | 72 | 222 | 3.0 | 5.0 | 0.00 | 0.00 | 0.00 | 94 | 1014.1 |
| 20260831034504 | 72 | 203 | 3.0 | 5.0 | 0.00 | 0.00 | 0.00 | 94 | 1014.5 |
| 20260831033959 | 72 | 210 | 3.0 | 5.0 | 0.00 | 0.00 | 0.00 | 93 | 1014.4 |
| 20260831033454 | 72 | 206 | 2.0 | 2.0 | 0.00 | 0.00 | 0.00 | 93 | 1014.3 |
| 20260831032950 | 72 | 198 | 1.0 | 3.0 | 0.00 | 0.00 | 0.00 | 93 | 1014.3 |
| 20260831032449 | 72 | 249 | 0.0 | 4.0 | 0.00 | 0.00 | 0.00 | 93 | 1014.5 |
| 20260831031945 | 72 | 180 | 0.0 | 2.0 | 0.00 | 0.00 | 0.00 | 93 | 1014.1 |
| 20260831031444 | 72 | 190 | 2.0 | 4.0 | 0.00 | 0.00 | 0.00 | 93 | 1013.9 |
| 20260831030943 | 72 | 176 | 2.0 | 3.0 | 0.00 | 0.00 | 0.00 | 93 | 1013.9 |
| 20260831030443 | 73 | 195 | 2.0 | 2.0 | 0.00 | 0.00 | 0.00 | 93 | 1013.9 |
| 20260831025941 | 73 | 203 | 0.0 | 3.0 | 0.00 | 0.00 | 0.00 | 93 | 1013.9 |
| 20260831025440 | 73 | 209 | 3.0 | 5.0 | 0.00 | 0.00 | 0.00 | 92 | 1013.8 |
| 20260831024936 | 73 | 172 | 2.0 | 4.0 | 0.00 | 0.00 | 0.00 | 92 | 1013.7 |
| 20260831024436 | 73 | 222 | 3.0 | 5.0 | 0.00 | 0.00 | 0.00 | 92 | 1013.6 |
| 20260831023931 | 73 | 196 | 3.0 | 5.0 | 0.00 | 0.00 | 0.00 | 91 | 1013.5 |
| 20260831023429 | 73 | 209 | 3.0 | 4.0 | 0.00 | 0.00 | 0.00 | 91 | 1013.7 |
| 20260831022925 | 73 | 199 | 4.0 | 5.0 | 0.00 | 0.00 | 0.00 | 91 | 1013.8 |
| 20260831022423 | 73 | 199 | 2.0 | 3.0 | 0.00 | 0.00 | 0.00 | 91 | 1013.7 |
| 20260831021917 | 73 | 261 | 0.0 | 1.0 | 0.00 | 0.00 | 0.00 | 90 | 1013.6 |
| 20260831021412 | 73 | 196 | 2.0 | 4.0 | 0.00 | 0.00 | 0.00 | 90 | 1013.5 |
| 20260831020908 | 73 | 188 | 0.0 | 3.0 | 0.00 | 0.00 | 0.00 | 91 | 1013.5 |
| 20260831020407 | 73 | 204 | 2.0 | 4.0 | 0.00 | 0.00 | 0.00 | 90 | 1013.6 |
| 20260831015902 | 73 | 200 | 4.0 | 4.0 | 0.00 | 0.00 | 0.00 | 91 | 1013.6 |
| 20260831015359 | 73 | 200 | 3.0 | 5.0 | 0.00 | 0.00 | 0.00 | 92 | 1013.6 |
| 20260831014858 | 73 | 195 | 2.0 | 4.0 | 0.00 | 0.00 | 0.00 | 91 | 1013.5 |